This demonstration page uses our WeatherBlox Daily Observations layout. Learn more.

Left ArrowRight Arrow

Hourly Observations for May 18, 2020

Temp ( °F °C ) Dew Point ( °F °C ) Humidity (%) Winds ( mph kmh ) Pressure ( in mb ) Visibility ( mi km ) Precip ( " mm )
12:15 am 00:15 Clear 50 10.1 47 8.3 89 89 NNW 7 11 30.06 1018 10 16.0934 0 0
12:35 am 00:35 Clear 51 10.5 47 8.3 86 86 NW 6 9 30.06 1018 10 16.0934 0 0
12:55 am 00:55 Clear 49 9.2 46 7.5 89 89 NW 6 9 30.07 1018 10 16.0934 0 0
1:15 am 01:15 Clear 49 9.5 47 8.1 91 91 N 8 13 30.07 1018 10 16.0934 0 0
1:35 am 01:35 Clear 50 10 47 8.1 88 88 NNW 8 13 30.06 1018 10 16.0934 0 0
1:55 am 01:55 Clear 49 9.4 46 7.7 89 89 NNW 7 11 30.07 1018 10 16.0934 0 0
2:15 am 02:15 Clear 48 8.7 45 7.2 90 90 NW 6 9 30.07 1018 10 16.0934 0 0
2:30 am 02:30 Clear 47 8.6 46 7.5 93 93 NNW 6 9 30.08 1018 10 16.0934 0 0
2:55 am 02:55 Clear 47 8.5 45 7.3 92 92 NNW 9 15 30.07 1018 10 16.0934 0 0
3:15 am 03:15 Clear 47 8.5 45 7.3 92 92 NNW 9 15 30.07 1018 10 16.0934 0 0
3:35 am 03:35 Clear 47 8.3 45 7.2 93 93 NNW 7 11 30.07 1018 10 16.0934 0 0
3:55 am 03:55 Clear 47 8.2 45 7.2 93 93 NNW 7 11 30.06 1018 10 16.0934 0 0
4:15 am 04:15 Clear 47 8.3 45 7.2 93 93 NNW 8 13 30.06 1018 10 16.0934 0 0
4:35 am 04:35 Clear 47 8.3 45 7.1 92 92 N 7 11 30.06 1018 10 16.0934 0 0
4:55 am 04:55 Clear 46 7.9 44 6.7 92 92 N 9 15 30.06 1018 10 16.0934 0 0
5:15 am 05:15 Clear 46 7.5 44 6.7 95 95 NNE 10 17 30.07 1018 10 16.0934 0 0
5:35 am 05:35 Clear 46 7.6 44 6.8 95 95 NNE 10 17 30.06 1018 10 16.0934 0 0
5:55 am 05:55 Clear 46 7.8 45 7 95 95 NNE 12 19 30.06 1018 10 16.0934 0 0
6:15 am 06:15 Clear 46 7.6 44 6.8 95 95 NNE 9 15 30.05 1018 10 16.0934 0 0
6:35 am 06:35 Mostly Cloudy 47 8.3 46 7.6 95 95 NE 15 24 30.04 1017 10 16.0934 0 0
6:55 am 06:55 Cloudy with Mist and Fog 47 8.6 46 8 96 96 NE 14 22 30.06 1018 5 8.0467 0 0
7:15 am 07:15 Cloudy with Mist and Fog 47 8.6 46 8 96 96 NNE 14 22 30.07 1018 5 8.0467 0 0
7:35 am 07:35 Cloudy with Mist and Fog 47 8.4 46 7.8 96 96 NNE 12 19 30.08 1019 4 6.43736 0 0
7:55 am 07:55 Cloudy with Mist and Fog 47 8.6 47 8.1 97 97 N 6 9 30.09 1019 5 8.0467 0 0
8:15 am 08:15 Cloudy with Mist and Fog 47 8.6 47 8.1 97 97 N 6 9 30.09 1019 5 8.0467 0 0
8:35 am 08:35 Cloudy with Mist and Fog 48 8.7 47 8.2 97 97 N 5 7 30.08 1019 5 8.0467 0 0
8:55 am 08:55 Cloudy 48 9 47 8.5 97 97 N 6 9 30.1 1019 7 11.26538 0 0
9:15 am 09:15 Cloudy 48 9.1 47 8.5 96 96 NE 6 9 30.1 1019 7 11.26538 0 0
9:35 am 09:35 Cloudy 49 9.2 47 8.5 95 95 NNE 7 11 30.1 1019 10 16.0934 0 0
9:55 am 09:55 Cloudy 49 9.6 47 8.6 94 94 NE 3 6 30.1 1019 10 16.0934 0 0
10:15 am 10:15 Cloudy 49 9.7 47 8.6 93 93 N 6 9 30.09 1019 10 16.0934 0 0
10:35 am 10:35 Cloudy 50 10 47 8.6 91 91 NNE 5 7 30.08 1019 10 16.0934 0 0
10:55 am 10:55 Cloudy 51 10.5 48 8.7 89 89 N 6 9 30.08 1019 10 16.0934 0 0
11:15 am 11:15 Cloudy 51 10.6 48 8.9 89 89 N 3 6 30.08 1019 10 16.0934 0 0
11:35 am 11:35 Cloudy 52 11.3 48 9.1 86 86 N 6 9 30.07 1018 10 16.0934 0 0
11:55 am 11:55 Cloudy 53 11.8 48 9.1 84 84 NNE 7 11 30.07 1018 10 16.0934 0 0
12:15 pm 12:15 Cloudy 54 12.3 49 9.3 82 82 N 8 13 30.05 1018 10 16.0934 0 0
12:35 pm 12:35 Mostly Cloudy 56 13.5 50 9.8 79 79 NNE 7 11 30.03 1017 10 16.0934 0 0
12:55 pm 12:55 Partly Cloudy 58 14.2 50 10 76 76 N 6 9 30.03 1017 10 16.0934 0 0
1:15 pm 13:15 Sunny 59 14.8 50 9.9 73 73 NE 5 7 30.01 1016 10 16.0934 0 0
1:35 pm 13:35 Sunny 60 15.5 50 10.1 70 70 NNE 3 6 29.99 1016 10 16.0934 0 0
1:55 pm 13:55 Sunny 62 16.5 51 10.3 67 67 NNE 8 13 29.98 1015 10 16.0934 0 0
2:15 pm 14:15 Sunny 64 17.5 51 10.3 63 63 NE 5 7 29.96 1014 10 16.0934 0 0
2:35 pm 14:35 Sunny 64 17.7 49 9.3 58 58 NE 6 9 29.96 1014 10 16.0934 0 0
2:55 pm 14:55 Sunny 65 18.6 49 9.6 56 56 Calm 29.94 1014 10 16.0934 0 0
3:15 pm 15:15 Sunny 67 19.2 50 9.8 55 55 Calm 29.92 1013 10 16.0934 0 0
3:35 pm 15:35 Sunny 68 19.8 50 9.8 53 53 NE 7 11 29.91 1013 10 16.0934 0 0
3:55 pm 15:55 Sunny 68 20.1 49 9.6 51 51 E 6 9 29.91 1013 10 16.0934 0 0
4:15 pm 16:15 Sunny 69 20.6 49 9.2 48 48 NNE 5 7 29.89 1012 10 16.0934 0 0
4:35 pm 16:35 Sunny 69 20.6 49 9.2 48 48 NNE 3 6 29.88 1012 10 16.0934 0 0
4:55 pm 16:55 Sunny 70 21 49 9.2 47 47 N 5 7 29.88 1012 10 16.0934 0 0
5:15 pm 17:15 Sunny 70 21.3 49 9.6 47 47 NE 3 6 29.88 1012 10 16.0934 0 0
5:35 pm 17:35 Sunny 70 21.3 48 9.1 46 46 NE 7 11 29.88 1012 10 16.0934 0 0
5:55 pm 17:55 Sunny 71 21.5 48 8.8 44 44 NE 8 13 29.87 1011 10 16.0934 0 0
6:15 pm 18:15 Sunny 70 21.3 48 8.9 45 45 NE 8 13 29.87 1011 10 16.0934 0 0
6:35 pm 18:35 Sunny 70 21.1 48 8.8 45 45 ENE 8 13 29.86 1011 10 16.0934 0 0
6:55 pm 18:55 Sunny 69 20.4 48 8.7 47 47 ENE 9 15 29.86 1011 10 16.0934 0 0
7:15 pm 19:15 Sunny 68 20 47 8.4 47 47 ENE 7 11 29.87 1011 10 16.0934 0 0
7:35 pm 19:35 Sunny 67 19.7 48 8.8 50 50 ENE 6 9 29.88 1012 10 16.0934 0 0
7:55 pm 19:55 Sunny 66 19.1 49 9.6 54 54 NE 6 9 29.88 1012 10 16.0934 0 0
8:15 pm 20:15 Sunny 65 18.5 50 9.8 57 57 ENE 6 9 29.89 1012 10 16.0934 0 0
8:35 pm 20:35 Sunny 64 17.5 49 9.7 60 60 ENE 6 9 29.9 1012 10 16.0934 0 0
8:55 pm 20:55 Clear 63 17.1 49 9.5 61 61 NE 6 9 29.91 1013 10 16.0934 0 0
9:15 pm 21:15 Clear 61 16.2 49 9.5 65 65 NE 5 7 29.92 1013 10 16.0934 0 0
9:35 pm 21:35 Clear 60 15.5 49 9.5 68 68 NE 3 6 29.94 1014 10 16.0934 0 0
9:55 pm 21:55 Clear 60 15.4 49 9.2 67 67 NE 5 7 29.94 1014 10 16.0934 0 0
10:15 pm 22:15 Clear 57 14 49 9.2 73 73 NE 5 7 29.96 1014 10 16.0934 0 0
10:35 pm 22:35 Clear 56 13.5 48 8.8 73 73 ENE 8 13 29.96 1015 10 16.0934 0 0
10:55 pm 22:55 Clear 58 14.7 48 9.1 69 69 E 13 20 29.96 1015 10 16.0934 0 0
11:15 pm 23:15 Clear 57 14 48 9 72 72 E 10 17 29.97 1015 10 16.0934 0 0
11:35 pm 23:35 Clear 56 13.5 48 9.1 75 75 E 16 26 29.98 1015 10 16.0934 0 0
11:55 pm 23:55 Clear 55 12.7 47 8.6 76 76 E 17 28 29.99 1016 10 16.0934 0 0

Powered by AerisWeather